Left ArrowRight Arrow

39.14045, -121.61691

Hourly Observations for June 21, 2024

Temp ( °F °C ) Dew Point ( °F °C ) Humidity (%) Winds ( mph kmh ) Pressure ( in mb ) Visibility ( mi km ) Precip ( " mm )
12:53 am 00:53 Clear 67 19.4 54 12.2 63 63 SSE 6 9 29.75 1008 10 16 0.00 0.00
1:53 am 01:53 Clear 65 18.3 53 11.7 65 65 SSE 5 7 29.76 1008 10 16 0.00 0.00
2:53 am 02:53 Clear 63 17.2 50 10 63 63 S 8 13 29.76 1008 10 16 0.00 0.00
3:53 am 03:53 Clear 61 16.1 49 9.4 64 64 SW 3 6 29.76 1008 10 16 0.00 0.00
4:53 am 04:53 Clear 59 15 49 9.4 69 69 Calm 29.77 1008 10 16 0.00 0.00
5:53 am 05:53 Sunny 59 15 48 8.9 67 67 Calm 29.78 1008 10 16 0.00 0.00
6:53 am 06:53 Sunny 62 16.7 49 9.4 62 62 ESE 5 7 29.78 1009 10 16 0.00 0.00
7:53 am 07:53 Sunny 66 18.9 50 10 56 56 SSE 6 9 29.79 1009 10 16 0.00 0.00
8:53 am 08:53 Sunny 70 21.1 51 10.6 51 51 VRB 5 7 29.79 1009 10 16 0.00 0.00
9:53 am 09:53 Sunny 75 23.9 53 11.7 46 46 S 6 9 29.78 1009 10 16 0.00 0.00
10:53 am 10:53 Sunny 80 26.7 54 12.2 41 41 WSW 6 9 29.78 1009 10 16 0.00 0.00
11:53 am 11:53 Sunny 83 28.3 55 12.8 38 38 SSW 7 11 29.77 1008 10 16 0.00 0.00
1:53 pm 13:53 Sunny 90 32.2 55 12.8 31 31 VRB 5 7 29.75 1007 10 16 0.00 0.00
2:53 pm 14:53 Sunny 92 33.3 55 12.8 29 29 SSW 6 9 29.73 1007 10 16 0.00 0.00
3:53 pm 15:53 Sunny 94 34.4 57 13.9 29 29 SSW 8 13 29.71 1006 10 16 0.00 0.00
4:53 pm 16:53 Sunny 94 34.4 56 13.3 28 28 SSW 10 17 29.69 1005 10 16 0.00 0.00
5:53 pm 17:53 Sunny 95 35 54 12.2 25 25 S 12 19 29.68 1005 10 16 0.00 0.00
6:53 pm 18:53 Sunny 93 33.9 54 12.2 27 27 S 9 15 29.68 1005 10 16 0.00 0.00
7:53 pm 19:53 Sunny 90 32.2 55 12.8 31 31 S 7 11 29.69 1005 10 16 0.00 0.00
8:53 pm 20:53 Clear 82 27.8 56 13.3 41 41 S 5 7 29.70 1006 10 16 0.00 0.00
9:53 pm 21:53 Clear 79 26.1 56 13.3 45 45 SE 5 7 29.71 1006 10 16 0.00 0.00
10:53 pm 22:53 Clear 75 23.9 58 14.4 55 55 ESE 6 9 29.72 1007 10 16 0.00 0.00
11:53 pm 23:53 Clear 73 22.8 56 13.3 55 55 ESE 6 9 29.73 1007 10 16 0.00 0.00

Powered by Vaisala Xweather